CAPE
1468 2664 2755 2773 2748 3017 2770 2974 2110 1892 1450 1546 1754 1592 1481 1574 1253 816 1545 1430 1452 1684 2143 2162 2515 2726 2477 2596 2182 2576 3114 3022 3018 3854 4386 4863 4469 3843 3787 4065 3969 4057 4232 3770 2560 2632 3104 2705 2742 2964 3033 2735 2974 2423 2298 2966 2974 3085 3412 3987 3663 3778 3394 3687 3460 3756 3926 4165 3743 2596 2800 2487 2766 2336 2500 3114 4351 4310 3832 4221 3899 4515 3814 4260 3137
1725 1992 2520 2572 2123 2280 2585 2472 2543 1958 1322 1080 1310 1454 1448 1469 1563 1347 1223 1529 1462 1400 2008 1861 2191 2426 2274 2443 2288 2529 3115 3386 2634 3124 3956 4120 3835 2846 3437 4326 4166 4016 3950 3918 3882 3468 3365 3460 3101 2914 3020 2783 2562 2094 1977 1509 2482 2123 2436 2434 2804 3316 3706 3829 4078 3784 3964 3911 4074 4584 3341 2508 2540 3896 4101 3438 3176 3518 3425 3618 3416 3130 4126 4265 4244
1363 1450 2367 2583 2701 2129 2577 2904 2867 2176 1362 972 767 797 1019 1206 1309 1481 889 786 1334 1328 1928 1756 2305 2512 2287 2527 2741 2638 3543 2940 2684 2787 3167 3860 3743 3082 2535 3498 3897 3778 3856 3895 3588 3615 3566 3384 2984 2938 2540 2517 2505 2308 2111 2210 1785 1924 1995 2102 2315 2049 3576 3454 3432 3533 3512 3785 4061 3318 3456 5682 3634 3627 3698 3343 3454 3904 3962 3694 3610 2352 2386 3520 4826
1863 1404 1504 1998 2083 2104 2789 3006 2352 2258 1572 969 830 678 623 733 1284 1249 927 714 969 1301 1710 1721 2444 2698 2577 2959 3164 2410 3329 2887 2690 2734 3383 3531 3524 3683 3770 3423 3482 3815 3810 3598 3384 3578 3462 3530 3110 2822 2813 2964 2871 2468 2271 2402 2281 2495 3664 2626 2116 1943 2752 3547 3796 4087 3986 3863 4172 4077 3976 3914 4374 4428 3974 3714 3828 3622 3905 3143 3090 2710 3455 2676 2299
1824 2033 1954 1831 1971 2646 2124 1869 1760 2316 1858 1020 753 650 497 490 937 754 896 639 653 1001 1512 2053 2291 2632 2036 2554 2834 2669 2584 2779 3090 2558 2631 2738 3231 3241 3224 3562 3588 3566 3364 3455 3465 3490 3414 3270 3287 3277 3286 3001 3341 2833 2570 2404 2590 2561 2305 2557 4099 3586 2672 3713 4687 4580 4716 4625 4581 4591 4759 4826 4541 4592 4674 3962 4081 4318 4075 4127 3770 3101 3437 3202 2995
1552 1566 1838 1963 1688 2872 2821 2094 1086 1353 1951 1323 771 704 500 273 435 964 887 716 570 840 1292 1406 1860 2464 2048 2053 2368 2738 2654 2716 3149 3178 2635 2571 2862 2952 3303 3480 3140 3364 3267 3142 3244 3123 3017 3136 3113 3303 3122 3026 2872 2751 2853 3004 3124 2594 2489 2832 2683 2718 3389 3615 3705 4286 4640 4563 4497 4637 5100 4865 4489 4496 4861 5364 4379 3611 4376 4174 3656 3609 4754 4726 3760
2164 2359 2157 2023 2293 2526 2842 2251 2152 1250 1283 1264 955 702 458 268 221 599 853 809 439 213 727 1239 1397 1956 2220 2115 2048 2570 2836 2591 2990 3351 3140 2863 2757 2777 2539 2895 2993 2995 2999 2829 2449 2738 2753 2705 3043 3118 3064 3120 2999 2970 3625 3697 3486 3161 3042 3673 3594 3502 3399 3141 3803 4090 4051 4208 4420 4508 4398 4454 4518 4752 5033 4571 4496 4110 4251 4947 4877 4650 4173 3915 4532
1652 1734 1921 2194 1900 1658 2237 2258 2160 1451 1487 1430 1698 826 511 429 476 577 993 906 561 176 71 709 1228 1239 1932 1810 2139 2281 2954 2788 3176 3634 3278 2879 2573 2854 2830 2593 2361 2396 2244 2435 2289 2136 2438 2451 1974 2555 2744 3047 3028 3097 3194 3690 3468 3268 3654 3341 3432 3652 3551 3358 3612 3729 3940 3863 4161 4224 4412 4591 4883 4198 5282 4689 3727 3789 3846 3592 3946 4500 5112 5847 3990
2064 1793 1724 1790 1579 1604 2060 2370 2054 1600 1484 2035 2384 1645 1064 640 711 637 1014 904 617 444 122 27 838 1028 1109 1702 1975 2037 2296 2732 2690 3264 3490 3394 3102 2378 2482 2461 2240 2015 1929 1601 1643 1836 1640 1448 1935 1708 2662 3225 2797 2818 2730 2918 3344 3394 3594 4091 4125 3801 3767 3722 4237 4748 4441 4252 4052 4125 4349 4631 4554 3969 3666 3172 2986 3411 4871 4086 4163 4617 4152 3272 3918
2057 1770 1483 1611 1722 1916 1893 1906 1475 1884 2390 2336 1957 2025 1861 1641 402 581 581 704 915 888 576 326 201 1038 1174 1581 1866 1856 1806 1842 2340 2233 2622 3211 3282 2363 2122 2188 1937 1748 2050 1884 1620 1447 1169 1121 1021 2047 2240 3040 2765 2412 2154 2296 2601 3456 4719 4305 4437 4500 4332 4289 4174 4080 4471 4548 4192 4297 4278 3796 3289 3484 3377 3543 4113 4251 3899 4251 3893 3891 3209 3519 4532
1807 1799 2083 1831 1994 2314 2693 2257 1283 1090 1155 1842 1941 1634 1093 1221 1050 1736 1281 940 964 1993 1231 900 448 210 1104 1160 1493 1321 1468 1119 1402 1872 2001 2418 2909 3054 2674 2596 2325 2271 2111 2255 2012 1469 1119 1174 1068 1598 2955 2335 2609 2114 1955 1845 1926 2082 1939 2180 3424 5406 4484 4330 4168 4199 4430 4424 4327 4142 3684 3372 3224 2906 3090 2486 2216 2361 2902 5410 4442 4265 3818 3152 2886
1381 1607 1380 1654 1704 1871 1916 2068 2204 1988 1615 1644 1603 1791 1803 1416 1318 1361 1904 1997 2457 1659 1597 1407 1179 697 319 720 1087 1180 1314 908 165 1343 1704 1934 2321 2973 2763 2336 1826 2069 1930 1638 1678 1417 1274 980 812 538 886 1981 2883 2630 1904 1798 1828 1847 1891 1963 1961 2340 3111 4153 4866 4638 4384 4221 4080 3697 3221 3092 3494 3687 3211 2462 3162 3491 4808 3371 4148 3518 3718 4007 3894
525 456 766 1121 1518 1773 1787 1816 1933 1550 1278 1656 1915 1871 1788 1584 1862 1696 1202 1188 1158 2052 2277 2367 1956 1615 1072 1181 810 1214 1470 1100 899 54 1208 1584 1854 2205 2477 2367 1768 1177 1245 1693 1643 1739 1741 1416 1144 842 314 1151 2600 3000 2923 2278 1699 1749 1733 1810 1838 1860 1878 2271 3030 3463 4354 5781 5450 4061 3402 3314 3274 3347 3220 3104 4144 3316 3663 3756 3380 3405 3309 2979 3230
606 547 485 470 577 682 859 986 1446 1779 1788 2200 1888 2150 1881 1906 2094 2061 1844 1566 1368 1179 1976 2157 2294 2895 2240 1839 2072 1872 1592 1372 1137 989 796 1140 1444 1735 2445 2018 1822 1338 993 1019 983 1505 1682 1580 1733 1458 1044 711 1541 3011 3618 3350 2812 2100 1969 1766 2454 2445 2063 1825 1814 2030 2857 3349 3636 4175 4795 4744 4435 4639 5016 4699 4061 3738 3920 4128 4426 4045 3606 3547 3788
346 417 536 562 553 563 574 706 858 1319 1671 1805 2023 2171 1679 1654 2000 2146 2125 1887 1578 1846 2373 1715 1829 2162 2519 2039 1894 1543 1456 978 1102 1140 1020 894 1067 1355 2154 1697 1048 819 863 856 1129 1046 1655 1695 1435 1397 1536 1543 1058 1281 3196 4580 4323 4166 3436 2898 2790 2874 2724 2594 2334 1898 1473 1276 2634 3016 3168 3845 3986 4174 4438 4808 4788 4927 4651 4219 4203 4193 4532 4696 4420
55 298 414 501 540 613 665 603 518 654 945 1184 1431 1780 1575 1562 1680 2026 2101 2372 1960 1963 2265 2306 2215 2076 2388 2236 2031 1673 1784 1492 1040 927 956 1084 976 950 1570 1952 1491 1006 638 572 817 1535 1611 1480 1622 1750 1704 1758 1794 1149 1506 3668 4923 4826 4703 4335 3784 3426 3139 2904 2569 2152 1817 1287 1096 1280 1871 2530 2582 2321 2325 2694 3620 4781 4660 4609 4739 4534 4267 4178 4212
0 0 0 158 302 476 531 645 565 492 519 997 1203 1471 1318 1159 1582 1964 1840 2090 1886 1871 2292 2573 2562 2282 2082 2050 1724 2767 2154 1637 1195 1068 860 1017 1014 1076 1625 2030 2082 1700 1157 1038 1012 1051 1010 1128 1755 1535 1538 2109 2262 1661 1120 761 2425 3870 4734 5002 5055 4764 4384 3731 3210 2691 2244 1720 1152 895 938 1190 1350 1235 1116 1350 1861 2737 4260 4815 4673 4308 4268 4294 4113
0 0 0 0 4 24 297 441 541 579 591 657 896 1482 1660 1419 1370 1889 1973 1991 2269 2163 2204 2164 2524 2317 1872 1873 1894 2264 2098 1855 1505 1213 1169 1170 1142 1151 1588 2065 2226 2129 1946 1743 1365 1115 1039 1180 1581 1428 1475 1565 1507 1651 1788 1421 1350 1951 2647 3272 3818 4170 4560 4517 3870 3077 2639 2379 2136 1762 1456 1360 1225 1047 893 900 923 1175 2105 2417 2932 3018 2748 2662 2456
0 0 0 0 0 0 24 224 270 399 509 585 912 684 1522 1648 1810 1836 1643 1553 1986 2159 2270 2233 2236 2518 2425 1951 1868 2206 2109 2014 1694 1482 1256 1285 1334 1265 1890 2212 2330 2377 2264 2209 2062 1870 1860 1918 1990 1938 1732 1707 1430 1229 1278 1471 1642 1922 2171 2364 2459 2564 2687 3016 3464 3172 2539 2223 2153 2084 2027 1932 1784 1581 1345 1187 1037 1031 1474 2044 2249 2215 2028 1694 1329
0 0 0 0 0 0 0 19 53 89 208 274 554 924 741 644 870 960 1067 1077 1056 1386 1658 1853 2169 2500 2455 2440 2239 1909 1604 1750 1903 1552 1400 1353 1387 1459 1518 2350 2302 2372 2474 2487 2472 2409 2274 2292 2139 1550 1356 1160 1098 1234 1207 1163 1350 2033 2204 2135 2032 1929 1931 2033 2342 2140 2176 3138 3092 2239 2068 2034 1968 1854 1744 1617 1500 1338 1187 1549 1953 2188 1980 1810 1791
0 0 0 0 0 0 0 0 0 0 211 447 594 872 597 342 481 652 791 832 1056 1418 1506 1905 2115 2179 2374 2477 2679 2633 2197 2332 2886 1544 1519 1476 1381 1312 1451 2220 2477 2435 2554 2607 2502 2481 2656 2630 2325 2024 1692 1312 1128 1088 1105 1177 1268 1490 2158 2265 2071 1894 1776 1919 1919 1914 1909 1870 2213 3773 3524 3018 2872 2610 2293 2153 2088 2175 2026 1694 1734 1983 1895 1659 1404
0 0 0 0 0 0 0 0 0 0 52 349 794 747 955 1121 637 1 299 687 898 917 964 1092 1248 1637 2210 2278 2794 3147 3072 2686 2634 2094 1472 1231 1333 1355 1458 1646 2490 2660 2646 2772 2691 2537 2570 2607 2796 2542 2115 1815 1544 1379 1541 1597 1578 1449 1619 1708 1895 1929 1805 2241 2347 2177 2022 2058 2393 2193 2137 3341 3797 3444 3131 2986 2847 2682 2512 2682 2356 2073 1874 1606 1380
2 0 0 0 0 0 0 0 0 0 0 173 451 433 616 846 919 967 966 995 975 900 926 1242 1718 1993 2246 2715 2790 2985 3202 3852 2724 2446 2136 1570 1230 1261 1225 1364 1552 1796 2693 2568 2608 2707 2767 3018 2552 2488 2413 2316 2166 2100 2040 1988 2117 2152 2160 1992 1630 1796 1997 2180 2420 2497 2406 2227 2071 2094 2162 1938 1733 1944 2719 3320 3306 3284 3070 3002 2946 2782 2518 2298 2038
0 1 0 0 0 0 0 0 0 0 11 159 56 114 367 710 1054 1195 1098 957 757 661 800 1117 1578 1790 1912 2359 2613 2845 3340 3355 3170 2712 2530 2068 1526 1333 1317 1232 1244 1501 1635 2080 2267 2535 2609 2587 2160 2162 2375 2324 2263 2136 2002 1937 1939 2046 2119 2155 2223 2149 1720 1847 2127 2465 2440 2305 2244 2219 2151 2297 2454 2235 2110 2179 2329 2547 3076 2983 2857 3137 2777 2709 2551
4 1 0 0 0 0 0 0 1 2 0 0 5 81 381 587 925 1201 1629 1478 1108 1146 1382 1610 1514 1781 1936 2084 2569 2871 3013 3598 2939 2810 2359 2306 2110 1749 1519 1530 1524 1489 1506 1531 1619 2134 2629 2289 2101 2039 2129 2144 2098 2037 1957 1881 1917 2042 2222 2337 2410 2333 2152 1909 1866 2221 2326 2253 2149 2069 2048 2026 2162 2286 2513 2784 2722 2493 2166 2313 2306 2445 3174 2598 2494
10 5 0 0 0 0 0 0 0 0 0 0 14 249 107 88 358 1003 1068 1097 1223 1312 982 594 646 997 1401 1324 1674 1596 1945 2467 2969 2994 2371 2091 1914 1805 1710 1703 1642 1547 1526 1596 1557 1536 1562 1662 1723 1638 1698 1606 1655 1671 1692 1813 1940 1908 1857 2110 2314 2374 2229 2125 2054 1896 1990 2028 1903 1834 1886 1882 1800 1781 1898 2054 2157 2325 2693 2916 3024 2826 2780 3411 2998
8 7 8 0 0 0 0 0 0 0 0 0 0 0 0 5 131 414 548 382 402 339 153 174 245 428 828 1128 1293 1460 1560 1914 2157 2127 2620 2738 2212 1766 1728 1659 1658 1712 1753 1698 1660 1598 1431 1393 1393 1482 1571 1591 1558 1516 1538 1546 1472 1406 1618 1952 2162 2234 2280 2149 2076 2001 1889 1802 1777 1622 1499 1704 1771 1773 1859 1874 1832 1959 2135 2097 2179 2362 2922 3167 3240
0 4 1 1 1 0 0 1 2 0 0 0 0 0 0 0 0 26 22 6 13 41 26 62 54 46 274 461 880 1208 1376 1491 1881 2001 2111 2316 2610 2526 1824 1733 1652 1601 1540 1451 1460 1506 1493 1388 1287 1288 1331 1397 1458 1480 1505 1451 1220 1168 1355 1620 1826 2027 2162 2107 2080 1942 1899 1860 1936 1727 1587 1422 1613 1825 1958 2014 2062 2119 2208 2192 2038 2005 1998 2237 2690
7 3 8 7 5 9 7 4 0 0 0 0 0 0 0 0 0 0 0 4 14 0 0 0 0 0 0 284 473 774 1155 1426 1481 1545 1538 1594 1711 2224 2056 1681 1495 1369 1386 1473 1607 1641 1577 1439 1329 1191 1114 1124 1199 1305 1376 1354 1505 1444 1368 1441 1653 1818 1925 1998 2003 1996 2011 1950 1848 1694 1756 1840 1748 1662 1724 1938 2061 2085 2193 2380 2483 2322 2262 2360 2351
3 4 11 12 4 10 8 3 4 7 0 0 0 0 0 0 0 0 0 0 0 0 0 0 0 0 0 0 91 427 785 997 1115 1271 1338 1386 1446 1456 1451 1408 1297 1407 1585 1734 1721 1694 1683 1610 1440 1178 1022 959 977 1020 1050 893 1450 1942 1981 1779 1805 1906 1937 1962 1976 1952 1935 1913 1759 1638 1479 1476 1794 1817 1738 1683 1795 1914 2044 2160 2584 2911 2786 2813 2699
23 11 17 12 29 23 9 10 12 25 18 8 8 0 0 0 0 0 0 0 0 0 0 0 0 0 0 0 0 0 313 692 724 769 873 991 1171 1210 1414 1407 1144 1075 1500 1780 1813 1784 1808 1685 1495 1360 1281 1266 1275 1338 1342 1330 1335 1854 2152 1977 1837 1812 1831 1819 1849 1848 1771 1645 1466 1408 1330 1256 1457 1610 1793 1736 1643 1698 1894 1986 2184 2849 3296 3109 2966
18 13 18 29 54 34 11 13 22 21 16 15 18 18 3 0 0 0 0 0 0 0 0 0 0 0 0 0 0 0 0 130 526 689 649 569 593 808 1101 1284 1258 1053 988 1437 1586 1762 1634 1542 1660 1727 1708 1509 1256 1212 1233 1350 1445 1435 1412 1457 1578 1627 1675 1675 1642 1598 1582 1556 1548 1452 1353 1271 1276 1434 1488 1629 1739 1772 1823 1878 2173 2442 2770 3231 3270
35 36 32 39 29 29 10 24 36 23 21 23 26 28 10 0 0 0 0 0 0 0 0 0 0 0 0 0 0 0 0 0 0 210 482 586 560 557 750 863 914 957 1096 1423 1584 1505 1475 1372 1222 1429 1622 1659 1462 1362 1464 1527 1486 1372 1278 1251 1251 1174 1118 1224 1260 1108 1182 1314 1538 1587 1501 1400 1311 1161 1268 1338 1428 1648 1802 1862 1968 2144 2345 2574 2740
23 27 25 38 46 43 36 54 53 50 45 45 29 11 4 1 0 0 0 0 0 0 0 0 0 0 0 0 0 0 0 0 0 0 80 377 452 496 549 692 774 765 908 1011 1415 1704 1717 1589 1429 1349 1439 1594 1651 1600 1600 1581 1494 1410 1344 1346 1383 1426 1401 1366 1427 1392 1125 936 921 1195 1404 1504 1521 1485 1342 1277 1490 1591 1688 1695 1851 2024 2220 2404 2529
17 19 24 38 42 38 40 35 28 32 25 14 8 3 1 1 0 0 0 0 0 0 0 2 14 0 0 0 0 0 0 0 0 0 0 0 260 485 543 580 730 743 701 928 1259 1589 1864 1933 1853 1655 1471 1516 1500 1399 1276 1187 1140 1315 1628 1784 1686 1463 1446 1539 1608 1479 1280 1094 1031 949 1288 1380 1565 1610 1581 1536 1456 1624 1652 1672 1744 1764 1874 1932 2046
16 17 16 16 16 24 26 33 17 10 8 4 1 0 0 0 0 0 0 0 0 1 0 1 1 0 0 0 0 0 0 0 0 0 0 0 0 0 139 320 302 424 473 605 794 1178 1648 1920 2052 2038 2202 2309 2381 2350 2178 1763 1603 1845 2077 2206 2161 1747 1430 1414 1473 1528 1452 1295 1173 1150 1427 1474 1680 1685 1693 1678 1686 1623 1564 1748 1703 1710 1625 1706 1723
7 7 8 11 24 20 16 12 10 6 0 0 0 2 4 4 5 5 4 5 7 5 1 0 0 2 22 2 14 1 0 0 0 0 0 0 0 0 0 19 262 509 706 924 951 975 1051 1261 1541 1762 1928 2118 2230 2366 2357 2298 2345 2436 2448 2418 2353 2098 1739 1554 1538 1402 1376 1295 1064 1122 1486 1525 1813 1868 1845 1836 1845 1835 1812 1795 1911 1852 1818 1807 1786
3 6 10 11 10 9 9 9 3 3 6 3 13 17 11 10 9 9 7 8 11 8 5 6 2 0 1 10 10 0 0 0 0 0 0 0 0 0 0 0 17 197 689 776 1038 1541 1322 1470 1551 1657 1904 2104 2301 2247 2235 2350 2505 2475 2488 2492 2429 2448 2197 1911 1778 1509 1282 1273 1275 1222 1257 1593 1950 1959 1892 1736 1700 1806 1789 1985 2011 2069 2009 1903 1967
8 6 9 20 6 6 6 5 7 8 8 9 10 10 10 9 10 10 13 12 12 9 14 10 4 0 2 13 0 0 0 0 0 0 0 0 0 0 0 1 72 298 585 819 870 1092 1590 2054 2145 2111 2170 2258 2370 2467 2630 2668 2723 2856 2526 2370 2412 2384 2124 1819 1721 1744 1766 1561 1670 1903 1502 1554 1514 1549 1479 1473 1373 1482 1544 1447 1485 1547 1449 1637 1793
9 8 7 3 0 0 0 4 8 10 11 10 10 17 17 17 17 15 14 10 6 3 1 2 2 8 16 0 0 0 0 0 0 0 0 0 0 1 0 0 0 0 0 0 266 607 860 1029 1129 1237 1349 1446 1468 1628 1788 1879 2244 2370 2336 2330 2025 2011 2034 1957 1823 1594 1534 1668 2006 1454 1141 1304 1131 1220 1455 1586 1523 1403 1546 1602 1644 1563 1563 1517 1784
8 4 10 8 9 3 5 8 8 10 15 19 19 18 18 19 19 22 20 18 14 10 6 4 0 2 3 0 0 0 0 0 0 0 0 1 3 3 1 0 0 0 0 0 0 11 366 611 800 813 943 1147 1294 1441 1560 1712 1907 2058 2152 2249 2250 2277 2159 1953 1870 1983 2053 2148 2111 2008 2163 2196 1911 1707 1446 1413 1581 1721 1909 2048 2074 1990 1987 2018 1792
8 7 10 10 12 11 11 15 14 13 10 12 14 17 18 18 19 20 21 16 12 12 10 9 5 8 6 0 0 0 0 0 0 1 3 3 2 0 1 1 0 0 0 0 0 0 0 0 269 500 578 741 936 1099 1172 1268 1353 1370 1370 1394 1459 1573 1764 1890 1977 2003 2038 1925 1898 1804 1666 1902 2106 1894 1413 995 1161 1490 2061 2051 2028 1912 1491 1617 1956
12 13 13 19 11 11 12 11 14 15 14 13 13 17 21 22 22 21 18 16 13 12 14 13 13 15 16 1 0 0 0 0 2 2 3 2 1 1 1 2 1 1 0 0 0 0 0 0 0 0 175 358 475 625 830 1013 1089 1166 1249 1402 1580 1764 1900 1986 1963 1961 1926 1877 1922 1956 2017 2128 2081 1854 1755 1635 1636 1761 1941 1942 1840 1973 1792 1595 1710
11 13 16 14 12 9 11 10 11 13 16 19 20 20 22 25 23 22 20 18 18 13 12 8 11 6 3 2 3 1 0 0 1 2 2 3 2 2 2 1 1 0 0 0 0 0 0 0 0 0 2 0 349 472 522 572 645 728 829 1005 1205 1425 1616 1772 1901 1978 1963 1920 1878 1960 2024 2057 2075 2015 1854 1791 1827 1894 1972 1962 2038 2092 2043 1888 1884
9 10 10 8 8 9 9 14 13 10 17 16 13 14 19 21 20 18 14 13 14 15 15 9 4 2 2 0 0 0 0 0 0 2 3 3 2 1 0 0 1 1 0 0 1 1 2 1 0 0 1 0 118 331 420 474 519 523 548 565 648 824 1045 1304 1528 1804 1894 1943 2033 2106 2201 2260 2257 2222 2015 1824 1711 1641 1795 1861 1880 1911 1941 1896 1739
9 10 10 9 10 11 12 6 16 16 13 11 13 14 15 16 17 17 17 16 15 15 14 8 6 4 2 2 0 0 0 0 0 0 1 2 2 2 2 1 1 1 1 1 1 2 2 2 1 1 1 1 2 1 96 192 364 546 668 696 761 732 710 700 764 858 944 1014 1134 1349 1552 1754 1996 2179 2252 2191 2070 1865 1821 1819 1796 1742 1752 1760 1730
6 8 8 11 10 12 14 16 8 10 15 18 20 21 21 19 17 17 16 22 19 22 19 10 8 4 2 0 0 0 0 0 0 1 0 1 0 1 1 1 0 0 0 2 3 2 0 0 0 1 1 2 2 1 1 1 0 76 351 567 679 775 825 863 861 856 831 803 834 942 965 962 979 1094 1362 1606 1722 1745 1820 1789 1827 1848 1821 1803 1676
6 9 11 14 14 15 12 6 12 20 16 20 24 27 24 23 20 17 17 15 12 10 4 2 1 0 0 0 0 0 0 0 0 1 1 0 0 0 0 1 1 1 2 2 2 1 2 1 1 1 1 2 2 2 1 1 1 1 1 0 152 366 467 484 459 520 542 557 582 585 566 519 542 526 560 582 617 681 817 901 1022 1088 1355 1620 1614
12 12 11 12 13 13 14 14 16 13 10 11 11 11 12 6 13 4 2 2 2 4 6 4 3 2 1 0 0 0 0 0 0 1 0 0 0 0 0 2 1 0 2 2 0 1 0 1 1 2 0 0 0 0 0 0 0 0 0 0 0 0 0 0 0 214 233 240 308 361 343 371 401 431 492 498 515 615 659 708 738 725 680 791 1239
9 12 13 16 18 19 21 20 17 15 15 11 9 8 9 8 6 6 5 4 3 2 2 2 2 2 2 1 0 0 0 0 0 0 0 0 0 1 2 2 2 0 1 2 1 1 1 0 0 0 0 0 0 0 0 0 0 0 0 0 0 0 0 0 0 0 0 0 0 0 0 0 1 1 2 4 6 177 178 9 197 430 436 460 596
8 2 2 4 3 12 13 11 4 3 13 12 10 10 9 7 5 5 4 3 2 2 2 2 2 0 1 1 2 2 2 1 0 0 0 0 0 0 0 0 1 0 0 0 0 0 0 0 0 0 0 0 0 0 0 0 0 0 0 0 0 0 0 0 0 0 0 0 0 0 0 0 0 31 155 215 236 60 263 315 403 505 577 609 609
Wind_Speed
12 14 13 11 11 12 11 10 7 8 7 9 10 10 10 10 9 8 10 8 8 6 6 5 6 6 6 5 4 5 3 3 3 4 4 4 5 5 6 3 4 4 3 1 2 3 5 4 2 3 2 2 3 3 3 5 4 3 4 4 3 5 5 6 6 6 7 7 10 7 8 11 10 12 10 10 15 14 13 13 14 15 17 19 20
15 16 14 14 11 12 10 10 8 8 6 8 8 9 11 10 12 10 9 10 9 8 7 5 6 6 5 7 4 6 6 4 4 5 4 4 3 3 4 5 4 4 5 3 3 3 5 6 5 3 3 2 3 1 2 1 6 4 3 2 4 4 5 7 5 7 7 9 7 8 9 10 8 11 12 13 10 13 13 13 12 8 15 16 16
28 25 17 16 15 13 12 10 9 7 6 6 6 6 9 10 11 11 9 9 9 9 10 6 8 7 6 7 8 6 8 6 4 5 5 6 4 2 4 5 4 4 4 4 4 5 4 6 5 4 3 4 2 2 2 2 3 4 5 5 4 3 6 7 8 7 7 7 9 9 8 10 10 12 11 10 10 11 11 12 10 11 13 16 17
22 21 25 19 14 14 14 12 8 7 6 6 6 6 7 9 11 10 10 9 10 9 10 9 9 9 7 8 9 7 7 7 6 4 6 7 6 4 4 5 6 5 5 5 5 6 6 6 4 4 3 3 5 4 3 4 4 6 6 6 6 4 7 9 9 10 9 8 9 9 10 10 10 11 11 10 11 12 13 13 12 12 15 14 13
25 24 22 20 22 23 18 11 9 8 6 7 5 6 6 7 11 10 10 9 10 11 10 11 11 11 8 8 9 8 6 6 7 6 5 5 6 6 4 4 6 7 6 7 6 7 7 6 5 4 4 3 5 5 5 4 5 7 6 7 8 9 10 10 10 9 8 7 8 8 8 9 10 9 10 10 10 12 13 12 13 14 16 18 11
27 27 27 22 18 18 22 23 15 8 8 7 6 6 6 7 9 11 10 10 11 12 12 10 12 12 10 9 8 9 8 7 7 6 6 6 5 5 5 5 4 5 6 6 7 7 7 7 6 6 5 4 4 5 6 4 5 5 7 8 9 10 10 9 8 8 9 8 8 7 9 9 10 10 10 11 12 12 12 12 13 13 15 15 13
35 33 29 27 27 23 22 21 20 15 13 12 10 10 7 6 7 10 11 11 10 9 13 13 13 13 13 11 9 9 9 8 8 7 6 6 7 6 5 6 6 6 6 5 5 6 6 7 8 7 7 7 6 6 7 6 6 6 7 9 11 11 10 9 9 9 8 8 7 8 7 8 9 9 10 11 12 12 11 11 12 13 13 12 11
37 34 31 30 29 27 28 28 29 30 27 19 15 12 10 10 10 11 13 11 10 10 nan 14 15 13 13 12 11 10 11 10 10 10 8 6 7 8 7 5 6 7 6 6 5 5 7 7 6 8 8 8 8 8 7 8 8 7 8 8 9 10 10 10 11 10 10 9 8 8 9 8 9 10 11 13 11 9 10 10 8 9 12 14 14
33 32 30 32 31 32 35 35 32 27 26 26 21 16 15 15 14 13 14 12 10 9 10 nan 16 15 14 14 13 11 11 12 12 12 12 10 7 7 9 7 6 6 8 7 7 7 6 6 7 7 10 10 9 8 7 8 10 9 8 9 9 8 9 10 10 11 10 9 8 9 8 7 8 10 9 6 5 6 10 12 10 13 16 15 14
33 30 29 29 30 34 37 38 33 27 24 25 30 33 26 17 13 14 13 13 14 13 12 11 12 17 16 16 15 14 12 13 15 15 15 12 11 8 8 9 7 6 7 8 7 8 6 6 5 5 8 12 12 11 9 6 7 10 11 10 9 9 9 8 8 8 9 8 8 8 8 8 9 9 7 5 5 7 9 11 12 14 15 14 14
33 33 32 31 31 33 35 36 33 26 25 27 30 30 33 34 26 20 17 16 16 17 15 13 10 12 16 16 16 14 13 12 18 20 17 15 13 11 8 10 9 7 6 8 8 7 8 8 8 6 8 10 12 13 12 10 7 5 5 8 12 12 10 9 8 9 8 8 8 8 8 8 8 9 9 10 10 10 12 15 15 16 15 14 10
37 38 36 34 34 35 34 33 33 32 31 32 31 35 34 31 32 34 30 22 20 18 17 16 16 13 12 15 15 14 13 12 18 21 20 18 15 12 11 9 9 10 8 6 7 8 7 7 7 6 9 11 13 13 12 11 10 8 7 6 5 6 10 12 12 11 9 8 9 9 10 10 10 11 10 10 11 11 14 15 15 14 11 10 11
38 41 41 39 38 39 38 36 35 37 36 30 29 33 34 32 31 33 35 36 36 27 20 20 20 18 16 18 16 16 16 14 17 nan 20 20 17 14 11 11 9 8 9 8 8 8 10 10 7 8 8 8 12 14 14 11 10 10 8 7 5 5 4 5 9 10 14 12 11 10 10 11 10 10 11 12 15 12 12 11 12 10 10 9 11
37 39 42 43 42 41 40 39 37 37 34 32 31 32 32 33 33 32 30 31 26 25 25 22 21 21 19 18 19 19 20 19 20 19 20 20 20 17 14 10 10 9 10 9 9 10 9 9 10 9 9 9 12 13 14 13 12 10 10 10 9 5 2 2 2 4 7 8 8 8 10 12 10 13 12 13 12 11 10 9 11 11 10 11 13
37 36 38 42 44 43 42 40 38 39 38 35 33 33 31 31 31 31 30 28 24 22 23 25 27 27 25 22 21 19 16 23 22 24 23 24 23 22 18 12 9 11 11 11 12 11 13 11 10 10 11 13 10 10 14 15 14 12 11 9 8 7 6 6 6 7 6 7 6 4 5 7 7 9 10 11 10 11 11 10 11 11 11 13 13
nan 37 37 40 43 43 43 42 40 39 39 36 34 34 32 32 29 30 30 29 30 28 24 24 26 24 22 23 24 20 19 28 30 22 18 25 30 27 23 18 14 12 12 15 15 15 14 13 13 12 12 12 12 8 10 16 17 14 12 11 10 8 7 7 6 5 4 4 5 4 5 5 5 6 6 7 9 11 10 10 13 12 10 11 12
nan nan nan 41 41 42 42 42 41 40 39 38 36 33 32 31 28 27 27 28 28 26 24 22 22 21 19 21 21 21 21 21 22 26 23 17 26 28 27 24 20 16 14 14 15 16 16 16 15 14 12 13 13 12 11 14 16 15 14 13 12 10 9 10 10 9 6 6 5 4 5 6 6 7 8 8 10 11 12 13 15 15 14 13 14
nan nan nan nan nan nan 39 40 40 41 40 41 38 34 32 30 27 27 29 30 27 25 24 21 20 18 18 18 19 19 21 23 22 26 27 27 23 25 27 26 24 21 18 18 18 17 16 11 14 16 14 13 11 14 14 17 16 15 14 13 13 10 10 12 14 13 11 9 8 8 8 7 6 6 7 8 10 15 16 13 14 16 13 14 13
nan nan nan nan nan nan nan 38 37 39 41 43 41 39 38 35 32 32 32 32 31 27 25 23 20 19 17 16 17 20 20 23 26 26 28 29 28 26 27 28 25 22 21 20 21 21 21 18 13 15 16 15 12 14 16 20 18 17 17 16 13 9 11 16 16 14 17 16 9 7 5 4 6 9 10 12 14 17 18 16 17 17 15 14 15
nan nan nan nan nan nan nan nan nan nan 39 41 42 40 39 39 38 35 32 30 29 26 25 24 22 19 17 17 19 19 19 20 26 25 26 27 28 28 28 29 27 25 24 23 23 22 21 21 19 15 14 14 15 15 17 21 20 19 21 19 14 9 15 18 17 17 18 17 15 12 9 9 9 11 12 13 15 21 19 19 20 20 18 17 18
nan nan nan nan nan nan nan nan nan nan 40 40 40 40 40 39 37 37 34 32 30 28 25 23 20 20 18 17 19 20 19 19 25 28 25 26 26 27 28 26 27 27 27 26 25 23 24 22 21 19 18 18 18 18 19 21 22 22 22 19 14 13 19 21 19 17 19 17 14 15 14 14 14 14 15 17 17 19 22 22 22 21 21 20 19
nan nan nan nan nan nan nan nan nan nan nan 41 39 38 38 37 36 nan 33 33 33 31 29 26 22 19 19 19 20 21 21 20 22 26 25 26 26 26 27 24 25 28 27 27 27 27 26 27 26 23 21 21 19 19 19 22 25 27 21 15 11 13 18 20 21 21 19 17 15 13 12 15 16 17 18 20 22 23 23 24 24 22 22 21 21
nan nan nan nan nan nan nan nan nan nan nan 45 44 41 40 38 37 37 37 35 33 30 29 28 26 22 21 22 23 23 23 24 24 25 26 25 26 28 24 24 21 27 27 26 26 26 28 30 36 44 37 34 31 28 26 23 27 26 19 17 15 13 19 21 19 18 16 15 12 11 11 12 13 15 19 21 22 24 24 24 26 27 25 23 23
nan nan nan nan nan nan nan nan nan nan nan 53 nan 45 43 42 40 40 40 36 32 28 25 26 26 25 23 23 25 26 27 26 28 25 27 27 26 26 26 23 21 25 27 27 25 27 28 33 37 35 33 31 31 29 27 29 29 22 21 19 17 17 23 19 16 15 13 11 9 9 10 12 14 16 18 21 21 23 23 22 22 25 25 24 23
nan nan nan nan nan nan nan nan nan nan nan nan nan nan 47 46 44 44 43 40 35 31 28 28 27 27 26 25 26 28 29 29 28 29 29 30 28 27 26 25 23 23 24 26 27 27 32 38 33 27 27 29 27 26 27 25 24 24 22 21 21 28 24 18 14 13 11 9 10 11 10 11 13 15 19 22 21 20 20 18 17 18 21 19 17
nan nan nan nan nan nan nan nan nan nan nan nan nan 57 55 nan 49 48 47 44 42 41 39 36 34 33 34 32 30 29 28 28 29 30 33 31 32 30 28 27 25 25 25 24 21 20 22 24 26 26 25 25 26 26 28 29 25 22 22 24 28 26 24 20 16 14 12 12 12 11 11 13 14 15 16 16 14 13 16 16 16 15 16 17 15
nan nan nan nan nan nan nan nan nan nan nan nan nan nan nan nan 52 51 53 52 51 48 45 43 40 38 36 36 35 32 31 29 29 31 33 34 34 36 34 30 28 28 30 31 30 27 19 18 22 23 26 24 24 25 26 27 29 29 27 26 26 26 24 22 20 16 14 13 13 12 13 14 15 15 14 13 11 12 15 14 12 13 17 17 16
nan nan nan nan nan nan nan nan nan nan nan nan nan nan nan nan nan nan nan nan nan nan nan nan nan nan 39 37 36 34 32 33 33 33 32 33 34 38 38 36 35 36 35 35 36 35 31 26 23 25 25 25 26 28 28 28 25 24 27 26 26 26 24 22 20 18 16 16 15 15 14 14 12 12 13 12 11 12 16 15 14 13 15 15 14
nan nan nan nan nan nan nan nan nan nan nan nan nan nan nan nan nan nan nan nan nan nan nan nan nan nan nan 41 40 38 38 37 38 42 41 42 39 37 37 36 36 35 34 33 36 35 34 33 30 28 27 28 29 29 28 28 25 21 22 26 27 30 31 31 26 20 19 17 14 13 13 14 12 12 12 10 10 12 16 15 15 15 15 16 14
nan nan nan nan nan nan nan nan nan nan nan nan nan nan nan nan nan nan nan nan nan nan nan nan nan nan nan nan nan 41 40 39 40 38 34 31 30 31 31 31 32 33 32 34 36 32 31 31 29 29 29 31 33 32 30 28 25 23 22 24 26 29 32 32 28 25 22 18 14 13 11 12 10 11 11 8 9 11 14 16 15 18 18 18 17
nan nan nan nan nan nan nan nan nan nan nan nan nan nan nan nan nan nan nan nan nan nan nan nan nan nan nan nan nan nan 38 36 34 32 30 28 29 28 28 27 27 26 29 36 34 32 31 32 30 29 29 32 32 32 32 31 29 28 26 26 26 26 27 28 30 31 28 21 16 12 11 10 8 9 10 9 9 12 14 16 17 19 19 20 19
nan nan nan nan nan nan nan nan nan nan nan nan nan nan nan nan nan nan nan nan nan nan nan nan nan nan nan nan nan nan nan 43 41 40 38 36 33 31 30 29 28 29 29 38 34 30 33 33 30 29 30 29 28 29 31 32 31 30 28 27 25 27 28 25 27 29 28 24 18 14 11 9 8 9 9 10 12 13 15 16 18 19 20 20 19
nan nan nan nan nan nan nan nan nan nan nan nan nan nan nan nan nan nan nan nan nan nan nan nan nan nan nan nan nan nan nan nan nan 46 43 40 39 36 34 32 31 32 41 40 35 32 33 34 31 31 32 31 30 30 31 32 32 32 31 29 26 25 25 25 30 28 27 25 22 15 10 8 9 9 11 12 14 14 16 17 19 21 22 21 20
nan nan nan nan nan nan nan nan nan nan nan nan nan nan nan nan nan nan nan nan nan nan nan nan nan nan nan nan nan nan nan nan nan nan nan 50 47 43 42 41 39 38 41 37 38 35 36 34 33 34 34 34 32 32 33 32 31 29 28 25 22 22 22 25 27 25 27 26 22 15 11 8 11 13 14 16 19 19 18 19 22 23 24 24 23
nan nan nan nan nan nan nan nan nan nan nan nan nan nan nan nan nan nan nan nan nan nan nan nan nan nan nan nan nan nan nan nan nan nan nan nan 57 53 52 49 46 47 46 40 36 36 36 37 35 35 36 35 33 33 32 31 29 26 24 22 20 20 21 23 23 23 25 26 23 17 11 9 13 17 20 22 25 24 23 23 24 26 25 25 25
nan nan nan nan nan nan nan nan nan nan nan nan nan nan nan nan nan nan nan nan nan nan nan nan nan nan nan nan nan nan nan nan nan nan nan nan nan nan 58 52 50 49 47 47 42 39 38 37 36 36 37 35 33 31 30 29 27 25 27 27 24 23 21 19 21 24 24 24 21 15 10 10 16 22 26 28 28 28 27 27 28 28 27 26 26
nan nan nan nan nan nan nan nan nan nan nan nan nan nan nan nan nan nan nan nan nan nan nan nan nan nan nan nan nan nan nan nan nan nan nan nan nan nan nan nan 51 51 50 50 48 44 42 40 39 39 39 36 33 30 30 32 29 26 28 29 30 28 25 24 25 28 29 25 18 12 11 13 20 25 30 31 33 32 31 30 30 29 29 27 27
nan nan nan nan nan nan nan nan nan nan nan nan nan nan nan nan nan nan nan nan nan nan nan nan nan nan nan nan nan nan nan nan nan nan nan nan nan nan nan nan nan 52 51 52 51 48 45 43 43 43 42 40 36 33 32 37 40 38 34 35 38 37 33 33 34 34 31 26 16 12 17 23 27 32 37 39 39 38 35 33 31 30 29 28 28
nan nan nan nan nan nan nan nan nan nan nan nan nan nan nan nan nan nan nan nan nan nan nan nan nan nan nan nan nan nan nan nan nan nan nan nan nan nan nan nan nan 54 53 54 55 54 51 47 45 46 46 45 43 41 41 44 48 49 50 50 51 46 41 40 39 35 28 22 17 19 29 36 44 51 50 43 34 32 33 35 34 32 30 30 30
nan nan nan nan nan nan nan nan nan nan nan nan nan nan nan nan nan nan nan nan nan nan nan nan nan nan nan nan nan nan nan nan nan nan nan nan nan nan nan nan nan nan nan nan 60 60 59 57 55 54 55 56 55 52 49 48 50 51 57 64 57 46 40 38 37 33 30 32 38 40 41 42 42 41 38 37 34 35 37 38 36 33 31 30 32
nan nan nan nan nan nan nan nan nan nan nan nan nan nan nan nan nan nan nan nan nan nan nan nan nan nan nan nan nan nan nan nan nan nan nan nan nan nan nan nan nan nan nan nan nan nan 60 59 58 55 54 55 56 56 56 56 58 58 57 57 54 45 39 38 37 35 35 43 53 47 41 40 37 34 34 37 40 41 41 45 42 39 35 32 32
nan nan nan nan nan nan nan nan nan nan nan nan nan nan nan nan nan nan nan nan nan nan nan nan nan nan nan nan nan nan nan nan nan nan nan nan nan nan nan nan nan nan nan nan nan nan nan nan 58 56 54 55 57 58 57 56 58 57 57 57 54 50 46 44 42 39 41 45 54 55 46 41 38 40 38 39 41 44 49 53 48 39 35 32 34
nan nan nan nan nan nan nan nan nan nan nan nan nan nan nan nan nan nan nan nan nan nan nan nan nan nan nan nan nan nan nan nan nan nan nan nan nan nan nan nan nan nan nan nan nan nan nan nan nan nan 56 54 54 56 57 56 57 57 57 57 54 53 52 50 49 54 54 52 52 49 47 45 43 40 39 39 42 46 50 50 45 37 34 36 39
nan nan nan nan nan nan nan nan nan nan nan nan nan nan nan nan nan nan nan nan nan nan nan nan nan nan nan nan nan nan nan nan nan nan nan nan nan nan nan nan nan nan nan nan nan nan nan nan nan nan nan nan 55 54 55 56 57 57 57 57 56 54 53 54 54 56 54 51 49 49 48 47 46 45 42 41 42 44 45 45 43 38 36 39 36
nan nan nan nan nan nan nan nan nan nan nan nan nan nan nan nan nan nan nan nan nan nan nan nan nan nan nan nan nan nan nan nan nan nan nan nan nan nan nan nan nan nan nan nan nan nan nan nan nan nan nan nan 60 58 56 56 58 58 58 57 56 55 53 53 54 53 51 49 48 48 47 47 45 45 44 43 45 44 42 40 41 40 39 37 33
nan nan nan nan nan nan nan nan nan nan nan nan nan nan nan nan nan nan nan nan nan nan nan nan nan nan nan nan nan nan nan nan nan nan nan nan nan nan nan nan nan nan nan nan nan nan nan nan nan nan nan nan nan nan nan 59 58 58 57 57 57 56 55 56 55 52 51 50 50 49 48 47 45 44 42 41 42 42 41 40 39 39 39 38 36
nan nan nan nan nan nan nan nan nan nan nan nan nan nan nan nan nan nan nan nan nan nan nan nan nan nan nan nan nan nan nan nan nan nan nan nan nan nan nan nan nan nan nan nan nan nan nan nan nan nan nan nan nan nan nan nan nan nan 59 58 59 59 59 57 54 54 53 52 51 51 49 48 45 45 43 43 42 41 41 41 41 39 39 39 39
nan nan nan nan nan nan nan nan nan nan nan nan nan nan nan nan nan nan nan nan nan nan nan nan nan nan nan nan nan nan nan nan nan nan nan nan nan nan nan nan nan nan nan nan nan nan nan nan nan nan nan nan nan nan nan nan nan nan nan nan 59 58 54 53 55 56 57 55 54 52 50 49 47 46 45 46 44 44 43 42 42 42 42 41 40
nan nan nan nan nan nan nan nan nan nan nan nan nan nan nan nan nan nan nan nan nan nan nan nan nan nan nan nan nan nan nan nan nan nan nan nan nan nan nan nan nan nan nan nan nan nan nan nan nan nan nan nan nan nan nan nan nan nan nan nan nan nan nan nan nan 57 56 57 56 55 54 53 51 49 47 47 46 46 46 44 44 44 44 43 42
nan nan nan nan nan nan nan nan nan nan nan nan nan nan nan nan nan nan nan nan nan nan nan nan nan nan nan nan nan nan nan nan nan nan nan nan nan nan nan nan nan nan nan nan nan nan nan nan nan nan nan nan nan nan nan nan nan nan nan nan nan nan nan nan nan nan nan nan nan nan nan nan nan nan nan nan nan 49 49 nan 48 48 47 46 44
nan nan nan nan nan nan nan nan nan nan nan nan nan nan nan nan nan nan nan nan nan nan nan nan nan nan nan nan nan nan nan nan nan nan nan nan nan nan nan nan nan nan nan nan nan nan nan nan nan nan nan nan nan nan nan nan nan nan nan nan nan nan nan nan nan nan nan nan nan nan nan nan nan nan 55 55 55 nan 54 54 53 53 52 52 50
Wind_Direction
246 242 244 251 258 275 285 275 275 250 247 236 235 235 227 222 245 233 247 246 249 256 255 262 280 291 300 292 308 289 279 279 266 241 236 228 194 214 249 259 271 270 272 279 347 294 304 303 270 256 225 219 196 178 215 276 270 225 193 233 262 241 244 233 222 216 214 218 226 223 226 242 249 256 263 271 280 293 301 296 295 310 313 313 317
232 238 236 241 250 262 274 279 278 262 269 255 246 247 245 230 235 237 250 252 252 275 269 275 269 280 292 283 267 276 288 272 297 269 269 254 236 216 238 229 256 257 263 262 241 229 263 284 282 273 277 239 219 200 215 226 294 281 281 227 243 271 268 268 251 240 228 233 233 237 235 246 250 269 269 269 270 276 281 286 292 305 306 313 312
233 207 222 238 240 249 256 265 269 280 290 274 287 275 260 256 241 241 243 257 252 254 275 277 262 266 264 258 274 254 275 294 281 283 292 289 277 236 259 273 258 260 264 252 261 260 246 268 281 276 291 293 283 210 212 205 232 286 308 298 289 263 276 282 265 255 246 241 243 240 251 258 261 256 262 275 279 286 289 292 300 289 284 309 316
253 247 218 207 235 242 248 247 275 284 291 277 290 292 277 272 263 252 250 249 261 247 257 274 264 263 262 256 264 262 260 284 292 287 286 297 299 288 230 263 283 276 264 263 266 263 267 262 276 291 282 277 294 284 232 208 214 216 232 273 294 298 263 280 266 260 252 242 250 251 248 241 254 256 254 263 274 280 287 286 290 305 301 291 298
247 243 251 236 213 216 214 236 250 265 277 269 284 292 293 286 272 275 269 261 261 263 245 255 264 265 272 260 263 269 264 269 281 301 297 287 300 302 291 252 263 273 275 267 266 263 266 267 273 273 270 257 271 284 265 249 221 222 233 239 253 257 246 261 272 279 271 262 252 254 253 260 262 265 268 261 269 275 276 292 294 292 302 303 313
239 243 241 237 230 228 230 221 212 242 261 262 265 275 279 277 282 279 279 270 256 268 268 254 256 267 267 264 260 267 268 270 274 284 304 306 297 309 295 287 277 260 262 264 264 266 268 276 271 272 273 267 258 267 272 264 250 233 225 233 243 249 253 252 261 263 271 273 268 252 258 256 257 264 275 282 276 276 280 278 278 285 295 304 314
237 236 234 231 239 240 230 231 214 202 235 238 240 250 256 268 276 285 280 273 273 268 278 271 257 258 265 265 266 267 278 288 280 284 285 293 303 307 321 309 292 278 273 268 266 266 265 263 267 270 269 270 264 257 263 269 255 245 242 233 240 253 259 264 264 268 270 268 267 271 266 268 274 268 278 289 293 300 302 292 292 298 304 312 313
236 233 231 236 241 237 231 221 218 209 200 216 232 233 245 249 252 257 273 279 278 275 nan 281 274 265 264 266 261 265 273 284 283 284 289 289 291 300 309 305 309 303 294 284 283 276 274 276 272 273 276 267 268 262 260 263 266 249 250 244 235 237 243 250 262 267 270 271 274 273 278 278 280 287 277 276 279 288 298 299 308 311 317 311 314
234 232 236 241 243 244 237 231 228 218 207 196 208 226 229 238 247 246 255 274 274 273 266 nan 277 280 271 264 267 270 279 286 285 285 289 295 286 296 304 311 311 296 299 300 288 276 262 259 273 275 273 293 299 285 270 267 264 266 257 252 254 251 241 237 239 253 264 269 266 270 273 272 269 262 261 274 311 319 300 304 310 305 301 300 307
231 231 235 236 233 234 236 238 229 213 209 218 218 210 203 212 231 244 245 255 260 263 259 254 260 280 279 275 274 278 276 281 291 308 301 289 294 302 294 298 304 296 289 285 288 287 286 272 254 289 306 305 309 307 304 285 261 250 253 265 266 260 256 251 248 242 244 253 260 259 252 256 258 270 288 297 288 274 275 285 294 296 297 307 311
232 227 227 232 232 230 232 233 235 228 222 226 230 228 217 198 193 213 233 245 247 255 264 262 254 252 276 279 279 280 280 283 299 308 308 309 297 291 286 283 294 297 291 276 274 270 268 278 280 264 277 301 303 314 310 310 307 283 249 242 245 247 251 259 252 246 243 247 251 253 253 250 256 256 259 268 271 276 280 283 293 295 300 299 308
234 230 225 226 228 229 233 236 238 234 225 219 226 232 224 216 211 197 195 211 237 240 248 254 250 243 244 266 279 276 272 282 293 305 306 308 301 284 284 283 280 289 294 287 278 280 272 257 258 273 282 288 292 298 305 315 315 310 300 276 258 254 252 247 242 245 250 247 249 256 259 265 266 274 276 278 281 274 269 268 276 280 284 295 303
238 234 228 225 225 224 225 230 234 238 232 226 229 231 233 235 227 220 212 207 202 206 225 240 245 246 238 232 244 267 270 281 286 nan 303 303 304 290 273 272 279 274 281 290 285 274 273 278 263 242 232 274 296 296 299 302 314 326 320 315 294 278 261 261 262 252 238 240 247 256 266 264 261 265 266 268 267 267 267 269 272 279 292 306 312
238 237 233 230 229 227 226 226 229 233 237 235 235 236 235 236 244 246 241 231 224 219 209 219 234 245 250 249 241 237 247 276 290 292 297 299 297 291 270 264 257 260 263 269 276 280 281 271 269 266 259 239 246 263 277 291 288 283 275 268 263 266 282 292 287 278 265 253 251 252 259 262 269 268 270 267 267 271 273 278 277 282 294 308 306
236 236 237 234 232 231 229 229 230 231 233 233 232 240 242 238 237 243 251 256 251 241 238 236 233 227 227 236 247 246 251 263 288 298 300 299 298 289 273 273 256 246 249 256 257 259 263 273 272 271 265 265 261 253 262 272 275 273 275 277 275 270 269 272 276 278 282 282 284 288 276 270 265 269 269 271 273 276 279 285 289 292 297 293 295
nan 235 235 236 236 236 233 231 231 233 235 235 235 239 238 235 236 241 243 243 242 242 243 246 242 235 234 233 237 242 243 245 263 262 281 300 303 285 283 279 267 252 244 241 246 252 257 259 257 257 262 265 274 289 270 263 269 276 275 273 269 270 273 285 306 302 298 291 297 314 309 325 335 313 300 289 282 284 287 290 288 288 294 301 311
nan nan nan 234 234 235 237 236 234 234 237 238 236 236 233 231 230 239 245 248 252 257 259 259 261 262 256 252 246 245 247 243 246 267 277 278 285 285 291 286 282 277 267 260 251 248 248 254 259 257 256 258 269 283 282 274 257 263 266 268 266 263 263 268 300 333 351 14 29 21 22 17 8 2 359 351 312 290 281 287 296 296 300 306 306
nan nan nan nan nan nan 236 238 238 237 238 238 235 233 231 233 230 234 233 233 240 245 249 253 260 264 266 264 265 262 258 261 268 269 275 279 280 280 284 285 285 286 283 278 273 266 262 254 250 256 258 259 266 272 274 270 259 259 255 250 247 247 251 255 252 274 327 353 8 22 16 3 355 355 332 319 313 287 293 301 296 287 292 298 299
nan nan nan nan nan nan nan 240 240 240 242 242 238 232 229 230 234 235 232 230 229 232 237 236 238 244 247 250 260 263 255 263 276 271 276 283 286 278 276 278 280 282 281 277 275 272 269 268 266 260 257 255 267 269 271 269 259 258 257 250 241 235 248 248 250 246 254 265 263 261 246 270 286 293 304 327 320 302 294 297 290 288 290 292 292
nan nan nan nan nan nan nan nan nan nan 248 246 244 239 235 233 231 231 229 228 232 232 232 232 228 231 240 251 255 259 258 259 272 278 277 281 288 278 276 276 279 280 277 274 271 269 267 265 268 272 271 265 263 265 270 277 265 256 254 251 243 236 245 248 246 244 242 247 259 273 282 286 286 291 295 296 298 297 299 294 292 290 292 294 293
nan nan nan nan nan nan nan nan nan nan 247 248 246 243 241 238 236 232 230 234 234 236 239 240 236 234 239 241 247 254 258 260 269 283 279 276 277 276 267 274 274 274 275 275 273 270 266 264 260 266 273 273 271 272 273 277 276 264 260 256 254 241 242 244 245 242 244 242 243 258 272 277 283 289 291 292 293 291 291 294 292 294 295 296 296
nan nan nan nan nan nan nan nan nan nan nan 248 250 247 246 244 244 nan 238 235 232 234 235 235 235 240 242 243 244 248 254 267 260 276 282 281 280 284 269 268 268 267 270 274 274 270 267 261 259 262 272 274 272 273 279 281 283 271 269 276 267 251 247 247 245 247 247 246 248 251 260 272 280 284 285 286 286 285 285 288 294 300 300 300 300
nan nan nan nan nan nan nan nan nan nan nan 249 249 248 248 245 243 244 242 240 238 236 235 233 234 238 245 252 255 254 253 258 274 270 281 284 285 285 288 275 260 253 263 271 272 270 268 266 257 255 265 268 271 270 269 271 270 275 289 282 270 260 252 248 249 250 249 251 251 246 252 258 261 265 270 273 275 278 283 289 297 303 307 311 315
nan nan nan nan nan nan nan nan nan nan nan 252 nan 249 250 250 248 247 249 249 246 245 239 233 233 237 238 245 252 255 256 257 268 277 273 283 282 285 284 284 279 268 259 257 260 262 261 261 266 267 260 259 257 259 267 276 279 290 287 287 282 270 259 254 252 253 251 248 245 240 238 244 246 254 259 260 263 269 281 289 295 304 311 315 323
nan nan nan nan nan nan nan nan nan nan nan nan nan nan 253 254 253 252 253 253 253 252 245 234 231 235 237 240 244 248 252 255 256 270 280 281 285 285 285 286 287 287 275 265 259 257 256 259 259 262 267 266 268 264 263 271 288 294 296 293 286 271 270 266 259 250 242 239 238 236 233 240 246 245 250 257 264 271 278 283 289 291 300 318 320
nan nan nan nan nan nan nan nan nan nan nan nan nan 253 253 nan 252 253 255 255 253 248 243 239 235 232 230 232 237 240 239 243 249 256 265 270 272 280 285 287 288 290 292 275 263 244 235 240 244 247 248 254 258 259 256 256 260 277 290 290 275 277 276 270 259 248 234 227 230 233 237 240 245 248 252 259 266 277 277 280 286 293 295 298 306
nan nan nan nan nan nan nan nan nan nan nan nan nan nan nan nan 253 251 252 252 251 250 247 244 240 237 235 233 231 233 238 245 250 252 256 262 266 270 272 273 277 274 271 275 275 274 270 267 264 258 254 254 256 254 254 253 256 264 262 266 274 276 273 266 259 250 239 233 229 228 232 238 243 250 262 271 281 286 289 292 295 298 296 299 306
nan nan nan nan nan nan nan nan nan nan nan nan nan nan nan nan nan nan nan nan nan nan nan nan nan nan 241 239 238 237 239 245 249 254 258 262 263 265 268 269 272 275 274 273 275 274 271 263 261 263 259 257 258 254 255 256 258 263 268 269 272 275 273 270 262 253 243 236 228 229 231 239 243 256 263 275 286 289 291 295 301 302 301 300 303
nan nan nan nan nan nan nan nan nan nan nan nan nan nan nan nan nan nan nan nan nan nan nan nan nan nan nan 248 244 242 243 244 248 246 244 244 251 262 268 269 269 270 274 275 269 270 270 268 264 261 261 262 261 256 251 252 256 262 272 272 271 272 272 270 267 260 252 245 236 232 232 240 247 256 262 269 281 285 287 293 297 299 297 300 309
nan nan nan nan nan nan nan nan nan nan nan nan nan nan nan nan nan nan nan nan nan nan nan nan nan nan nan nan nan 252 249 247 236 225 225 233 245 249 253 256 261 262 267 272 274 270 268 265 263 261 260 260 260 261 258 253 249 253 257 268 271 272 276 279 276 267 257 249 238 235 235 240 242 258 265 270 269 273 281 290 290 292 297 303 307
nan nan nan nan nan nan nan nan nan nan nan nan nan nan nan nan nan nan nan nan nan nan nan nan nan nan nan nan nan nan 255 248 245 245 240 236 242 254 259 263 266 265 260 259 267 275 275 270 264 261 260 260 260 261 260 256 252 247 243 240 245 255 264 267 271 269 265 256 242 231 231 241 248 257 266 273 272 271 275 283 287 291 298 302 307
nan nan nan nan nan nan nan nan nan nan nan nan nan nan nan nan nan nan nan nan nan nan nan nan nan nan nan nan nan nan nan 257 254 251 248 244 244 248 255 263 267 269 265 269 271 274 275 274 267 263 262 263 262 261 261 257 252 250 248 241 237 239 241 245 248 252 256 257 250 237 234 238 246 259 270 274 273 273 279 283 288 291 294 296 304
nan nan nan nan nan nan nan nan nan nan nan nan nan nan nan nan nan nan nan nan nan nan nan nan nan nan nan nan nan nan nan nan nan 249 249 248 247 248 251 254 261 266 267 270 274 275 273 274 273 269 267 264 260 261 262 259 255 254 254 248 239 238 241 239 243 245 246 244 244 241 239 248 260 265 269 272 275 275 278 283 285 286 289 293 296
nan nan nan nan nan nan nan nan nan nan nan nan nan nan nan nan nan nan nan nan nan nan nan nan nan nan nan nan nan nan nan nan nan nan nan 254 254 254 258 260 260 268 274 271 273 272 272 273 273 271 268 264 261 260 259 259 258 257 254 249 243 242 241 243 249 250 243 238 238 235 231 247 272 277 278 276 275 273 274 277 279 281 283 286 287
nan nan nan nan nan nan nan nan nan nan nan nan nan nan nan nan nan nan nan nan nan nan nan nan nan nan nan nan nan nan nan nan nan nan nan nan 257 259 260 260 260 265 267 267 269 270 270 270 269 268 268 267 267 267 263 256 252 254 258 257 256 254 254 258 263 260 249 241 238 236 241 253 274 277 275 274 273 274 275 275 275 278 279 280 281
nan nan nan nan nan nan nan nan nan nan nan nan nan nan nan nan nan nan nan nan nan nan nan nan nan nan nan nan nan nan nan nan nan nan nan nan nan nan 261 260 260 261 263 267 270 270 269 268 267 267 266 265 266 269 263 247 242 251 262 267 267 265 264 267 269 265 254 241 237 235 238 268 277 274 272 272 274 275 274 273 272 274 276 278 279
nan nan nan nan nan nan nan nan nan nan nan nan nan nan nan nan nan nan nan nan nan nan nan nan nan nan nan nan nan nan nan nan nan nan nan nan nan nan nan nan 256 256 256 259 265 267 267 268 268 267 266 263 262 260 251 241 241 257 271 274 272 273 272 269 266 260 249 240 234 253 291 291 279 273 270 267 265 265 266 267 268 271 272 276 277
nan nan nan nan nan nan nan nan nan nan nan nan nan nan nan nan nan nan nan nan nan nan nan nan nan nan nan nan nan nan nan nan nan nan nan nan nan nan nan nan nan 257 256 255 255 258 261 263 264 266 265 263 259 256 245 235 240 256 268 273 272 270 262 261 259 255 248 242 243 271 282 273 265 258 253 247 243 242 243 246 250 254 260 269 272
nan nan nan nan nan nan nan nan nan nan nan nan nan nan nan nan nan nan nan nan nan nan nan nan nan nan nan nan nan nan nan nan nan nan nan nan nan nan nan nan nan 252 252 252 251 252 252 255 257 259 260 260 258 254 250 245 245 250 257 260 260 256 254 257 259 260 262 270 271 259 250 248 245 247 250 252 256 258 257 252 248 248 250 253 258
nan nan nan nan nan nan nan nan nan nan nan nan nan nan nan nan nan nan nan nan nan nan nan nan nan nan nan nan nan nan nan nan nan nan nan nan nan nan nan nan nan nan nan nan 247 247 248 249 249 249 249 249 249 247 247 249 251 255 260 265 266 271 276 278 280 280 282 281 267 254 253 257 264 271 277 283 284 280 273 269 268 266 265 266 268
nan nan nan nan nan nan nan nan nan nan nan nan nan nan nan nan nan nan nan nan nan nan nan nan nan nan nan nan nan nan nan nan nan nan nan nan nan nan nan nan nan nan nan nan nan nan 245 246 247 247 249 251 251 251 250 250 251 254 256 262 269 271 271 271 270 268 268 268 272 271 271 275 274 275 278 276 274 274 272 270 261 259 263 268 273
nan nan nan nan nan nan nan nan nan nan nan nan nan nan nan nan nan nan nan nan nan nan nan nan nan nan nan nan nan nan nan nan nan nan nan nan nan nan nan nan nan nan nan nan nan nan nan nan 246 247 248 250 251 251 251 251 253 256 258 260 260 259 259 259 260 261 260 262 272 279 281 276 270 264 263 261 260 264 267 268 276 284 288 283 278
nan nan nan nan nan nan nan nan nan nan nan nan nan nan nan nan nan nan nan nan nan nan nan nan nan nan nan nan nan nan nan nan nan nan nan nan nan nan nan nan nan nan nan nan nan nan nan nan nan nan 247 249 250 251 251 252 253 256 258 259 260 259 258 257 257 259 259 259 259 261 265 269 269 272 273 271 268 269 271 275 280 283 283 278 279
nan nan nan nan nan nan nan nan nan nan nan nan nan nan nan nan nan nan nan nan nan nan nan nan nan nan nan nan nan nan nan nan nan nan nan nan nan nan nan nan nan nan nan nan nan nan nan nan nan nan nan nan 249 251 252 252 253 254 256 258 260 259 258 258 258 261 261 260 260 263 267 265 264 263 264 266 267 271 276 282 286 286 280 278 280
nan nan nan nan nan nan nan nan nan nan nan nan nan nan nan nan nan nan nan nan nan nan nan nan nan nan nan nan nan nan nan nan nan nan nan nan nan nan nan nan nan nan nan nan nan nan nan nan nan nan nan nan 248 250 252 253 254 254 255 257 259 259 259 259 260 260 262 264 265 266 267 266 263 262 262 261 261 260 264 271 275 277 281 286 287
nan nan nan nan nan nan nan nan nan nan nan nan nan nan nan nan nan nan nan nan nan nan nan nan nan nan nan nan nan nan nan nan nan nan nan nan nan nan nan nan nan nan nan nan nan nan nan nan nan nan nan nan nan nan nan 252 254 255 256 256 257 259 261 261 259 260 264 266 267 268 269 270 269 267 263 261 261 263 261 260 262 269 276 280 282
nan nan nan nan nan nan nan nan nan nan nan nan nan nan nan nan nan nan nan nan nan nan nan nan nan nan nan nan nan nan nan nan nan nan nan nan nan nan nan nan nan nan nan nan nan nan nan nan nan nan nan nan nan nan nan nan nan nan 255 255 256 258 260 261 263 266 267 267 267 268 269 269 269 270 271 271 268 264 263 262 262 261 261 266 272
nan nan nan nan nan nan nan nan nan nan nan nan nan nan nan nan nan nan nan nan nan nan nan nan nan nan nan nan nan nan nan nan nan nan nan nan nan nan nan nan nan nan nan nan nan nan nan nan nan nan nan nan nan nan nan nan nan nan nan nan 255 256 258 260 266 269 269 267 267 267 269 270 270 271 272 271 269 268 267 266 266 266 266 265 265
nan nan nan nan nan nan nan nan nan nan nan nan nan nan nan nan nan nan nan nan nan nan nan nan nan nan nan nan nan nan nan nan nan nan nan nan nan nan nan nan nan nan nan nan nan nan nan nan nan nan nan nan nan nan nan nan nan nan nan nan nan nan nan nan nan 268 267 267 269 269 269 270 270 270 271 270 269 269 270 269 268 268 268 269 269
nan nan nan nan nan nan nan nan nan nan nan nan nan nan nan nan nan nan nan nan nan nan nan nan nan nan nan nan nan nan nan nan nan nan nan nan nan nan nan nan nan nan nan nan nan nan nan nan nan nan nan nan nan nan nan nan nan nan nan nan nan nan nan nan nan nan nan nan nan nan nan nan nan nan nan nan nan 267 268 nan 269 270 270 270 270
nan nan nan nan nan nan nan nan nan nan nan nan nan nan nan nan nan nan nan nan nan nan nan nan nan nan nan nan nan nan nan nan nan nan nan nan nan nan nan nan nan nan nan nan nan nan nan nan nan nan nan nan nan nan nan nan nan nan nan nan nan nan nan nan nan nan nan nan nan nan nan nan nan nan 268 267 265 nan 264 264 264 265 266 267 267